カタログに戻る

COSMOS 2180

運用中軍事PO
NORAD 21875·PAYLOAD·🇷🇺 Russia

打ち上げ Feb 17, 1992 から Plesetsk Cosmodrome

Loading…

次のパス (今後24時間)

TLE

最新Source: Space-Track

元期: Sep 14, 2026, 03:05 UTC

1 21875U 92008A   26257.12877259  .00000064  00000-0  51425-4 0  9996
2 21875  82.9300 155.6091 0038939  83.7921  78.9095 13.73969469733037

AllMySatでCOSMOS 2180をリアルタイム追跡

Download on the App Store